Location: Praha
(50.0830°N, 14.4670°E)
Time: 04:47:43
(UTC+02:00)

ISS - Pass Details

Date: 25 May 2021
Orbit: 417 x 422 km, 51.6° (Epoch: 13 June)

Event Time Altitude Azimuth Distance (km) Brightness Sun altitude
Rises 00:36:18 0° 284° (WNW) 2,369 0.3 -18.8°
Reaches altitude 10° 00:38:48 10° 266° (W) 1,503 -0.9 -18.8°
Enters shadow 00:39:25 13° 258° (WSW) 1,330 -1.3 -18.8°
